Starlink 4077

operational
NORAD ID: 53154 Int'l Des: 2022-083 Owner: SPXS Country: US Constellation: starlink
LEOCIRCULAR

About Starlink 4077

Description loading...

Live Position

Loading 3D Globe...

Upcoming Passes

Altitude History

Altitude vs Time

uPlot chart will show altitude changes over time

Two-Line Element Set

1 53154U 22083Y 25338.68364700 .00001166 00000-0 91323-4 0 9994
2 53154 53.2165 230.6176 0001962 85.6782 274.4435 15.08840607187016
Epoch: Dec 4, 2025 • Age: 9 hours

Current Status

Altitude 547.1 km
Velocity 7.59 km/s
Sub-Earth Point -23.56°S, 108.6°E
Launch Date Jul 17, 2022
Age 3.3 years
Type internet

Technical Details

Classification Payload
Mass 297.00 kg
Dry Mass 275.00 kg
Total Mass 297.00 kg
Length 0.20 m
Diameter 2.80 m
Span 9.00 m
Shape Box + pan
Manufacturer SPXS
Bus Type Starlink
Phase Status In Orbit
Owner/State SPXS/US

Large Constellations

Loading constellations...